TimeMDT,TemperatureF,Dew PointF,Humidity,Sea Level PressureIn,VisibilityMPH,Wind Direction,Wind SpeedMPH,Gust SpeedMPH,PrecipitationIn,Events,Conditions,WindDirDegrees,DateUTC
12:15 AM,37.4,30.2,75,30.03,10.0,NE,4.6,-,N/A,,Mostly Cloudy,40,2013-03-27 06:15:00
12:35 AM,35.6,30.2,81,30.03,10.0,Calm,Calm,-,N/A,,Partly Cloudy,0,2013-03-27 06:35:00
12:55 AM,35.6,30.2,81,30.02,10.0,Calm,Calm,-,N/A,,Mostly Cloudy,0,2013-03-27 06:55:00
1:15 AM,33.8,30.2,87,30.02,10.0,South,5.8,-,N/A,,Scattered Clouds,180,2013-03-27 07:15:00
1:35 AM,33.8,30.2,87,30.02,10.0,South,3.5,-,N/A,,Partly Cloudy,180,2013-03-27 07:35:00
1:55 AM,33.8,30.2,87,30.02,10.0,Calm,Calm,-,N/A,,Clear,0,2013-03-27 07:55:00
2:15 AM,35.6,32.0,87,30.02,10.0,Calm,Calm,-,N/A,,Clear,0,2013-03-27 08:15:00
2:35 AM,35.6,30.2,81,30.02,10.0,NNE,4.6,-,N/A,,Mostly Cloudy,30,2013-03-27 08:35:00
2:55 AM,35.6,30.2,81,30.02,10.0,NNE,5.8,-,N/A,,Overcast,20,2013-03-27 08:55:00
3:15 AM,35.6,30.2,81,30.02,10.0,NNE,4.6,-,N/A,,Mostly Cloudy,20,2013-03-27 09:15:00
3:35 AM,35.6,30.2,81,30.02,10.0,Calm,Calm,-,N/A,,Mostly Cloudy,0,2013-03-27 09:35:00
3:55 AM,33.8,30.2,87,30.01,10.0,NNE,6.9,-,N/A,,Overcast,20,2013-03-27 09:55:00
4:15 AM,33.8,28.4,81,30.02,10.0,North,3.5,-,N/A,,Scattered Clouds,350,2013-03-27 10:15:00
4:35 AM,33.8,30.2,87,30.02,10.0,North,3.5,-,N/A,,Partly Cloudy,350,2013-03-27 10:35:00
4:55 AM,33.8,30.2,87,30.03,10.0,North,3.5,-,N/A,,Mostly Cloudy,350,2013-03-27 10:55:00
5:15 AM,33.8,30.2,87,30.03,10.0,Calm,Calm,-,N/A,,Overcast,0,2013-03-27 11:15:00
5:35 AM,33.8,30.2,87,30.03,10.0,Calm,Calm,-,N/A,,Overcast,0,2013-03-27 11:35:00
5:55 AM,33.8,30.2,87,30.04,10.0,Calm,Calm,-,N/A,,Scattered Clouds,0,2013-03-27 11:55:00
6:15 AM,33.8,30.2,87,30.04,10.0,North,4.6,-,N/A,,Partly Cloudy,350,2013-03-27 12:15:00
6:35 AM,32.0,28.4,87,30.04,10.0,Calm,Calm,-,N/A,,Mostly Cloudy,0,2013-03-27 12:35:00
6:55 AM,32.0,28.4,87,30.06,10.0,Calm,Calm,-,N/A,,Mostly Cloudy,0,2013-03-27 12:55:00
7:15 AM,32.0,28.4,87,30.07,10.0,North,4.6,-,N/A,,Overcast,10,2013-03-27 13:15:00
7:35 AM,33.8,28.4,81,30.07,10.0,Calm,Calm,-,N/A,,Overcast,0,2013-03-27 13:35:00
7:55 AM,33.8,28.4,81,30.07,10.0,Calm,Calm,-,N/A,,Overcast,0,2013-03-27 13:55:00
8:15 AM,33.8,30.2,87,30.08,10.0,Calm,Calm,-,N/A,,Mostly Cloudy,0,2013-03-27 14:15:00
8:35 AM,33.8,30.2,87,30.08,10.0,Calm,Calm,-,N/A,,Partly Cloudy,0,2013-03-27 14:35:00
8:55 AM,33.8,30.2,87,30.08,10.0,North,3.5,-,N/A,,Clear,10,2013-03-27 14:55:00
9:15 AM,35.6,30.2,81,30.09,10.0,Calm,Calm,-,N/A,,Clear,0,2013-03-27 15:15:00
9:35 AM,35.6,32.0,87,30.09,10.0,Calm,Calm,-,N/A,,Clear,0,2013-03-27 15:35:00
9:55 AM,37.4,30.2,75,30.09,10.0,Calm,Calm,-,N/A,,Clear,0,2013-03-27 15:55:00
10:15 AM,37.4,32.0,81,30.09,10.0,Calm,Calm,-,N/A,,Clear,0,2013-03-27 16:15:00
10:35 AM,39.2,33.8,81,30.09,10.0,South,3.5,-,N/A,,Clear,170,2013-03-27 16:35:00
10:55 AM,41.0,33.8,76,30.10,10.0,Calm,Calm,-,N/A,,Clear,0,2013-03-27 16:55:00
11:15 AM,42.8,33.8,70,30.10,10.0,South,4.6,-,N/A,,Clear,170,2013-03-27 17:15:00
11:35 AM,44.6,35.6,71,30.10,10.0,SSE,5.8,-,N/A,,Clear,150,2013-03-27 17:35:00
11:55 AM,44.6,35.6,71,30.09,10.0,SE,5.8,-,N/A,,Clear,140,2013-03-27 17:55:00
12:15 PM,44.6,35.6,71,30.09,10.0,SSE,5.8,-,N/A,,Clear,160,2013-03-27 18:15:00
12:35 PM,46.4,35.6,66,30.09,10.0,SE,4.6,-,N/A,,Partly Cloudy,130,2013-03-27 18:35:00
12:55 PM,46.4,33.8,62,30.09,10.0,SE,8.1,-,N/A,,Scattered Clouds,140,2013-03-27 18:55:00
1:15 PM,46.4,35.6,66,30.08,10.0,SSE,9.2,-,N/A,,Scattered Clouds,150,2013-03-27 19:15:00
1:35 PM,46.4,33.8,62,30.08,10.0,South,9.2,-,N/A,,Mostly Cloudy,170,2013-03-27 19:35:00
1:55 PM,48.2,33.8,58,30.07,10.0,South,6.9,-,N/A,,Partly Cloudy,180,2013-03-27 19:55:00
2:15 PM,48.2,37.4,66,30.07,10.0,SE,6.9,-,N/A,,Partly Cloudy,140,2013-03-27 20:15:00
2:35 PM,48.2,37.4,66,30.07,10.0,South,9.2,-,N/A,,Partly Cloudy,180,2013-03-27 20:35:00
2:55 PM,50.0,35.6,58,30.07,10.0,SSE,8.1,-,N/A,,Partly Cloudy,160,2013-03-27 20:55:00
3:15 PM,51.8,37.4,58,30.06,10.0,SSE,9.2,-,N/A,,Clear,150,2013-03-27 21:15:00
3:35 PM,51.8,35.6,54,30.05,10.0,SSE,9.2,-,N/A,,Clear,150,2013-03-27 21:35:00
3:55 PM,51.8,37.4,58,30.06,10.0,SSE,12.7,-,N/A,,Clear,160,2013-03-27 21:55:00
4:15 PM,51.8,35.6,54,30.05,10.0,SE,9.2,-,N/A,,Clear,140,2013-03-27 22:15:00
4:35 PM,51.8,37.4,58,30.05,10.0,SSE,11.5,-,N/A,,Clear,150,2013-03-27 22:35:00
4:55 PM,51.8,35.6,54,30.05,10.0,SE,11.5,-,N/A,,Clear,140,2013-03-27 22:55:00
5:15 PM,51.8,35.6,54,30.06,10.0,SSE,10.4,-,N/A,,Clear,150,2013-03-27 23:15:00
5:35 PM,50.0,35.6,58,30.06,10.0,SE,10.4,-,N/A,,Clear,140,2013-03-27 23:35:00
5:55 PM,48.2,35.6,62,30.06,10.0,SE,9.2,-,N/A,,Mostly Cloudy,130,2013-03-27 23:55:00
6:15 PM,48.2,35.6,62,30.07,10.0,SE,8.1,-,N/A,,Mostly Cloudy,140,2013-03-28 00:15:00
6:35 PM,48.2,35.6,62,30.07,10.0,SE,8.1,-,N/A,,Overcast,140,2013-03-28 00:35:00
6:55 PM,46.4,35.6,66,30.07,10.0,SE,8.1,-,N/A,,Overcast,140,2013-03-28 00:55:00
7:35 PM,42.8,35.6,76,30.09,10.0,ESE,6.9,-,N/A,,Overcast,120,2013-03-28 01:35:00
7:55 PM,42.8,35.6,76,30.09,10.0,ESE,5.8,-,N/A,,Scattered Clouds,110,2013-03-28 01:55:00
8:15 PM,41.0,33.8,76,30.10,10.0,ESE,8.1,-,N/A,,Clear,110,2013-03-28 02:15:00
8:35 PM,39.2,33.8,81,30.10,10.0,ESE,6.9,-,N/A,,Clear,120,2013-03-28 02:35:00
8:55 PM,39.2,33.8,81,30.10,10.0,ESE,4.6,-,N/A,,Scattered Clouds,110,2013-03-28 02:55:00
9:15 PM,39.2,33.8,81,30.11,10.0,East,6.9,-,N/A,,Scattered Clouds,90,2013-03-28 03:15:00
9:35 PM,37.4,32.0,81,30.11,10.0,East,8.1,-,N/A,,Partly Cloudy,80,2013-03-28 03:35:00
9:55 PM,35.6,30.2,81,30.11,10.0,NW,3.5,-,N/A,,Clear,320,2013-03-28 03:55:00
10:15 PM,35.6,32.0,87,30.11,10.0,North,8.1,-,N/A,,Clear,350,2013-03-28 04:15:00
10:35 PM,35.6,33.8,93,30.11,10.0,North,8.1,-,N/A,,Scattered Clouds,10,2013-03-28 04:35:00
10:55 PM,35.6,32.0,87,30.10,10.0,North,8.1,-,N/A,,Mostly Cloudy,10,2013-03-28 04:55:00
11:15 PM,35.6,30.2,81,30.10,10.0,North,8.1,-,N/A,,Partly Cloudy,10,2013-03-28 05:15:00
11:35 PM,35.6,30.2,81,30.10,10.0,North,8.1,-,N/A,,Clear,360,2013-03-28 05:35:00
11:55 PM,35.6,30.2,81,30.10,10.0,NNE,8.1,-,N/A,,Clear,20,2013-03-28 05:55:00